| time (UTC) | temp F | wind direction | speed MPH | gust MPH | rain 1hr in | rain 24hr in | rain mn in | humidity % | barometer mb |
| 20260504231318 | 68 | 114 | 2.0 | 3.0 | 0.00 | 0.00 | 0.00 | 42 | 1004.0 |
| 20260504230814 | 68 | 222 | 4.0 | 6.0 | 0.00 | 0.00 | 0.00 | 42 | 1004.1 |
| 20260504230312 | 68 | 241 | 2.0 | 3.0 | 0.00 | 0.00 | 0.00 | 42 | 1004.1 |
| 20260504225810 | 69 | 275 | 7.0 | 8.0 | 0.00 | 0.00 | 0.00 | 41 | 1004.2 |
| 20260504225306 | 69 | 204 | 2.0 | 3.0 | 0.00 | 0.00 | 0.00 | 42 | 1004.1 |
| 20260504224804 | 69 | 252 | 4.0 | 4.0 | 0.00 | 0.00 | 0.00 | 41 | 1004.1 |
| 20260504224301 | 69 | 215 | 5.0 | 7.0 | 0.00 | 0.00 | 0.00 | 40 | 1004.2 |
| 20260504223757 | 69 | 228 | 5.0 | 7.0 | 0.00 | 0.00 | 0.00 | 40 | 1004.0 |
| 20260504223253 | 70 | 316 | 5.0 | 6.0 | 0.00 | 0.00 | 0.00 | 40 | 1003.9 |
| 20260504222750 | 70 | 243 | 4.0 | 4.0 | 0.00 | 0.00 | 0.00 | 39 | 1004.0 |
| 20260504222246 | 70 | 216 | 2.0 | 2.0 | 0.00 | 0.00 | 0.00 | 40 | 1003.7 |
| 20260504221744 | 70 | 177 | 3.0 | 6.0 | 0.00 | 0.00 | 0.00 | 39 | 1004.2 |
| 20260504221241 | 70 | 183 | 1.0 | 2.0 | 0.00 | 0.00 | 0.00 | 39 | 1004.1 |
| 20260504220738 | 70 | 327 | 6.0 | 8.0 | 0.00 | 0.00 | 0.00 | 38 | 1004.4 |
| 20260504220235 | 70 | 319 | 4.0 | 8.0 | 0.00 | 0.00 | 0.00 | 40 | 1003.9 |
| 20260504215732 | 70 | 323 | 6.0 | 7.0 | 0.00 | 0.00 | 0.00 | 38 | 1004.1 |
| 20260504215229 | 70 | 311 | 4.0 | 4.0 | 0.00 | 0.00 | 0.00 | 39 | 1004.0 |
| 20260504214724 | 70 | 270 | 8.0 | 10.0 | 0.00 | 0.00 | 0.00 | 38 | 1004.0 |
| 20260504214216 | 70 | 323 | 4.0 | 6.0 | 0.00 | 0.00 | 0.00 | 40 | 1004.1 |
| 20260504213712 | 69 | 232 | 6.0 | 8.0 | 0.00 | 0.00 | 0.00 | 40 | 1004.0 |
| 20260504213209 | 70 | 246 | 7.0 | 8.0 | 0.00 | 0.00 | 0.00 | 39 | 1004.1 |
| 20260504212706 | 69 | 291 | 3.0 | 4.0 | 0.00 | 0.00 | 0.00 | 40 | 1003.9 |
| 20260504212203 | 69 | 189 | 3.0 | 3.0 | 0.00 | 0.00 | 0.00 | 43 | 1004.1 |
| 20260504211700 | 70 | 244 | 6.0 | 8.0 | 0.00 | 0.00 | 0.00 | 40 | 1004.1 |
| 20260504211156 | 69 | 255 | 4.0 | 6.0 | 0.00 | 0.00 | 0.00 | 41 | 1003.9 |
| 20260504210654 | 70 | 222 | 5.0 | 7.0 | 0.00 | 0.00 | 0.00 | 41 | 1004.4 |
| 20260504210150 | 71 | 230 | 4.0 | 6.0 | 0.00 | 0.00 | 0.00 | 39 | 1004.4 |
| 20260504205648 | 69 | 270 | 2.0 | 3.0 | 0.00 | 0.00 | 0.00 | 41 | 1004.3 |
| 20260504205144 | 68 | 219 | 2.0 | 2.0 | 0.00 | 0.00 | 0.00 | 41 | 1004.1 |
| 20260504204643 | 69 | 303 | 6.0 | 8.0 | 0.00 | 0.00 | 0.00 | 41 | 1004.1 |
| 20260504204142 | 69 | 200 | 4.0 | 7.0 | 0.00 | 0.00 | 0.00 | 42 | 1004.4 |
| 20260504203640 | 68 | 263 | 2.0 | 2.0 | 0.00 | 0.00 | 0.00 | 42 | 1004.7 |
| 20260504203137 | 69 | 305 | 4.0 | 6.0 | 0.00 | 0.00 | 0.00 | 41 | 1004.6 |
| 20260504202632 | 69 | 307 | 7.0 | 9.0 | 0.00 | 0.00 | 0.00 | 41 | 1004.4 |
| 20260504202129 | 67 | 305 | 3.0 | 3.0 | 0.00 | 0.00 | 0.00 | 42 | 1004.4 |
| 20260504201625 | 67 | 188 | 3.0 | 4.0 | 0.00 | 0.00 | 0.00 | 43 | 1004.7 |
| 20260504201124 | 69 | 291 | 6.0 | 8.0 | 0.00 | 0.00 | 0.00 | 42 | 1005.0 |
| 20260504200620 | 68 | 181 | 2.0 | 2.0 | 0.00 | 0.00 | 0.00 | 43 | 1004.8 |
| 20260504200117 | 67 | 264 | 3.0 | 3.0 | 0.00 | 0.00 | 0.00 | 44 | 1005.0 |
| 20260504195613 | 66 | 199 | 4.0 | 4.0 | 0.00 | 0.00 | 0.00 | 44 | 1004.8 |
| 20260504195109 | 67 | 170 | 4.0 | 6.0 | 0.00 | 0.00 | 0.00 | 43 | 1005.1 |
| 20260504194606 | 68 | 181 | 2.0 | 2.0 | 0.00 | 0.00 | 0.00 | 43 | 1005.1 |
| 20260504194102 | 66 | 290 | 3.0 | 3.0 | 0.00 | 0.00 | 0.00 | 43 | 1005.4 |
| 20260504193558 | 66 | 281 | 6.0 | 8.0 | 0.00 | 0.00 | 0.00 | 44 | 1005.1 |
| 20260504193057 | 66 | 321 | 5.0 | 10.0 | 0.00 | 0.00 | 0.00 | 44 | 1005.2 |
| 20260504192555 | 67 | 264 | 6.0 | 7.0 | 0.00 | 0.00 | 0.00 | 44 | 1005.4 |
| 20260504192052 | 67 | 262 | 2.0 | 2.0 | 0.00 | 0.00 | 0.00 | 42 | 1005.2 |
| 20260504191550 | 68 | 265 | 5.0 | 7.0 | 0.00 | 0.00 | 0.00 | 42 | 1005.0 |
| 20260504191046 | 70 | 218 | 3.0 | 4.0 | 0.00 | 0.00 | 0.00 | 42 | 1005.1 |
| 20260504190543 | 69 | 228 | 8.0 | 15.0 | 0.00 | 0.00 | 0.00 | 41 | 1005.2 |
| 20260504190039 | 69 | 294 | 10.0 | 13.0 | 0.00 | 0.00 | 0.00 | 41 | 1005.7 |
| 20260504185536 | 68 | 300 | 8.0 | 11.0 | 0.00 | 0.00 | 0.00 | 42 | 1005.6 |
| 20260504185033 | 69 | 252 | 5.0 | 7.0 | 0.00 | 0.00 | 0.00 | 41 | 1005.2 |
| 20260504184528 | 67 | 192 | 4.0 | 8.0 | 0.00 | 0.00 | 0.00 | 43 | 1005.4 |
| 20260504184023 | 66 | 269 | 6.0 | 7.0 | 0.00 | 0.00 | 0.00 | 46 | 1005.4 |
| 20260504183521 | 66 | 302 | 9.0 | 14.0 | 0.00 | 0.00 | 0.00 | 44 | 1005.7 |
| 20260504183019 | 67 | 296 | 9.0 | 11.0 | 0.00 | 0.00 | 0.00 | 44 | 1005.7 |
| 20260504182515 | 67 | 295 | 8.0 | 11.0 | 0.00 | 0.00 | 0.00 | 43 | 1005.8 |
| 20260504182013 | 66 | 211 | 5.0 | 8.0 | 0.00 | 0.00 | 0.00 | 46 | 1005.7 |
| 20260504181510 | 66 | 263 | 5.0 | 7.0 | 0.00 | 0.00 | 0.00 | 44 | 1005.9 |
| 20260504181009 | 67 | 65 | 7.0 | 9.0 | 0.00 | 0.00 | 0.00 | 44 | 1005.8 |
| 20260504180507 | 66 | 281 | 8.0 | 11.0 | 0.00 | 0.00 | 0.00 | 44 | 1005.7 |
| 20260504180005 | 67 | 196 | 2.0 | 3.0 | 0.00 | 0.00 | 0.00 | 44 | 1005.8 |
| 20260504175502 | 67 | 198 | 1.0 | 2.0 | 0.00 | 0.00 | 0.00 | 46 | 1005.9 |
| 20260504174959 | 66 | 171 | 2.0 | 2.0 | 0.00 | 0.00 | 0.00 | 44 | 1006.0 |
| 20260504174456 | 66 | 282 | 7.0 | 11.0 | 0.00 | 0.00 | 0.00 | 46 | 1006.0 |
| 20260504173954 | 66 | 215 | 4.0 | 6.0 | 0.00 | 0.00 | 0.00 | 45 | 1006.0 |
| 20260504173450 | 67 | 237 | 3.0 | 6.0 | 0.00 | 0.00 | 0.00 | 47 | 1005.9 |
| 20260504172947 | 66 | 187 | 3.0 | 6.0 | 0.00 | 0.00 | 0.00 | 46 | 1005.8 |
| 20260504172443 | 67 | 254 | 5.0 | 8.0 | 0.00 | 0.00 | 0.00 | 45 | 1006.0 |
| 20260504171940 | 66 | 266 | 4.0 | 6.0 | 0.00 | 0.00 | 0.00 | 46 | 1005.8 |
| 20260504171437 | 65 | 265 | 3.0 | 4.0 | 0.00 | 0.00 | 0.00 | 46 | 1006.1 |
| 20260504170934 | 65 | 327 | 6.0 | 8.0 | 0.00 | 0.00 | 0.00 | 46 | 1006.1 |
| 20260504170430 | 65 | 294 | 5.0 | 7.0 | 0.00 | 0.00 | 0.00 | 47 | 1006.1 |
| 20260504160349 | 63 | 286 | 8.0 | 11.0 | 0.00 | 0.00 | 0.00 | 48 | 1006.8 |
| 20260504150814 | 60 | 259 | 6.0 | 10.0 | 0.00 | 0.00 | 0.00 | 48 | 1007.2 |
| 20260504150311 | 59 | 281 | 11.0 | 13.0 | 0.00 | 0.00 | 0.00 | 49 | 1007.2 |
| 20260504141241 | 56 | 334 | 4.0 | 4.0 | 0.00 | 0.00 | 0.00 | 50 | 1007.8 |
| 20260504140737 | 56 | 303 | 7.0 | 10.0 | 0.00 | 0.00 | 0.00 | 52 | 1007.5 |
| 20260504140233 | 55 | 195 | 1.0 | 2.0 | 0.00 | 0.00 | 0.00 | 50 | 1007.7 |
| 20260504130702 | 53 | 134 | 2.0 | 3.0 | 0.00 | 0.00 | 0.00 | 55 | 1007.7 |
| 20260504130158 | 52 | 265 | 2.0 | 3.0 | 0.00 | 0.00 | 0.00 | 55 | 1007.9 |
| 20260504120122 | 49 | 241 | 2.0 | 3.0 | 0.00 | 0.00 | 0.00 | 62 | 1008.2 |
| 20260504110549 | 39 | 155 | 0.0 | 0.0 | 0.00 | 0.00 | 0.00 | 85 | 1008.3 |
| 20260504100511 | 32 | 232 | 0.0 | 0.0 | 0.00 | 0.00 | 0.00 | 97 | 1008.2 |
| 20260504081904 | 34 | 174 | 0.0 | 1.0 | 0.00 | 0.00 | 0.00 | 94 | 1008.4 |
| 20260504081401 | 34 | 151 | 0.0 | 0.0 | 0.00 | 0.00 | 0.00 | 94 | 1008.3 |
| 20260504080856 | 34 | 151 | 0.0 | 0.0 | 0.00 | 0.00 | 0.00 | 94 | 1008.2 |
| 20260504080354 | 34 | 150 | 0.0 | 0.0 | 0.00 | 0.00 | 0.00 | 93 | 1008.5 |
| 20260504070321 | 35 | 169 | 0.0 | 0.0 | 0.00 | 0.00 | 0.00 | 92 | 1008.4 |
| 20260504060241 | 37 | 170 | 0.0 | 0.0 | 0.00 | 0.00 | 0.00 | 91 | 1008.2 |
| 20260504050709 | 40 | 170 | 0.0 | 1.0 | 0.00 | 0.00 | 0.00 | 85 | 1008.3 |
| 20260504050206 | 41 | 170 | 0.0 | 0.0 | 0.00 | 0.00 | 0.00 | 85 | 1008.4 |
| 20260504045703 | 42 | 170 | 0.0 | 0.0 | 0.00 | 0.00 | 0.00 | 84 | 1008.2 |
| 20260504045158 | 42 | 170 | 0.0 | 0.0 | 0.00 | 0.00 | 0.00 | 85 | 1008.4 |
| 20260504044656 | 43 | 170 | 0.0 | 0.0 | 0.00 | 0.00 | 0.00 | 85 | 1008.5 |
| 20260504044153 | 44 | 170 | 0.0 | 0.0 | 0.00 | 0.00 | 0.00 | 84 | 1008.5 |
| 20260504043650 | 45 | 170 | 0.0 | 0.0 | 0.00 | 0.00 | 0.00 | 83 | 1008.5 |
| 20260504043147 | 44 | 170 | 0.0 | 0.0 | 0.00 | 0.00 | 0.00 | 79 | 1008.6 |
| 20260504042644 | 44 | 170 | 0.0 | 0.0 | 0.00 | 0.00 | 0.00 | 83 | 1008.7 |
| 20260504042140 | 44 | 170 | 0.0 | 0.0 | 0.00 | 0.00 | 0.00 | 84 | 1008.6 |
| 20260504041636 | 44 | 170 | 0.0 | 0.0 | 0.00 | 0.00 | 0.00 | 86 | 1008.5 |
| 20260504041133 | 44 | 170 | 0.0 | 0.0 | 0.00 | 0.00 | 0.00 | 85 | 1008.5 |
| 20260504040630 | 43 | 169 | 0.0 | 0.0 | 0.00 | 0.00 | 0.00 | 83 | 1008.4 |
| 20260504040127 | 44 | 169 | 0.0 | 0.0 | 0.00 | 0.00 | 0.00 | 86 | 1008.3 |
| 20260504035623 | 43 | 169 | 0.0 | 0.0 | 0.00 | 0.00 | 0.00 | 85 | 1008.4 |
| 20260504035120 | 44 | 169 | 0.0 | 0.0 | 0.00 | 0.00 | 0.00 | 83 | 1008.3 |
| 20260504034618 | 44 | 169 | 0.0 | 0.0 | 0.00 | 0.00 | 0.00 | 82 | 1008.4 |
| 20260504034114 | 44 | 169 | 0.0 | 0.0 | 0.00 | 0.00 | 0.00 | 81 | 1008.4 |
| 20260504033613 | 44 | 169 | 0.0 | 0.0 | 0.00 | 0.00 | 0.00 | 80 | 1008.6 |
| 20260504033110 | 44 | 169 | 0.0 | 0.0 | 0.00 | 0.00 | 0.00 | 81 | 1008.6 |
| 20260504032606 | 44 | 169 | 0.0 | 0.0 | 0.00 | 0.00 | 0.00 | 80 | 1008.5 |
| 20260504032103 | 45 | 169 | 0.0 | 0.0 | 0.00 | 0.00 | 0.00 | 79 | 1008.5 |
| 20260504031601 | 45 | 170 | 0.0 | 0.0 | 0.00 | 0.00 | 0.00 | 80 | 1008.6 |
| 20260504031056 | 46 | 169 | 0.0 | 0.0 | 0.00 | 0.00 | 0.00 | 77 | 1008.5 |
| 20260504030554 | 46 | 265 | 0.0 | 0.0 | 0.00 | 0.00 | 0.00 | 76 | 1008.7 |
| 20260504030050 | 45 | 265 | 0.0 | 0.0 | 0.00 | 0.00 | 0.00 | 76 | 1008.5 |
| 20260504025547 | 45 | 147 | 0.0 | 0.0 | 0.00 | 0.00 | 0.00 | 78 | 1008.8 |
| 20260504025044 | 45 | 147 | 0.0 | 0.0 | 0.00 | 0.00 | 0.00 | 75 | 1009.0 |
| 20260504024541 | 45 | 147 | 0.0 | 0.0 | 0.00 | 0.00 | 0.00 | 74 | 1008.8 |
| 20260504024038 | 42 | 243 | 0.0 | 0.0 | 0.00 | 0.00 | 0.00 | 84 | 1008.9 |
| 20260504023534 | 42 | 170 | 1.0 | 1.0 | 0.00 | 0.00 | 0.00 | 85 | 1009.1 |
| 20260504023030 | 41 | 169 | 0.0 | 0.0 | 0.00 | 0.00 | 0.00 | 84 | 1008.9 |
| 20260504022526 | 40 | 170 | 0.0 | 0.0 | 0.00 | 0.00 | 0.00 | 88 | 1009.0 |
| 20260504022023 | 40 | 170 | 0.0 | 0.0 | 0.00 | 0.00 | 0.00 | 88 | 1009.0 |
| 20260504021521 | 40 | 170 | 0.0 | 0.0 | 0.00 | 0.00 | 0.00 | 88 | 1008.9 |
| 20260504021017 | 40 | 170 | 0.0 | 0.0 | 0.00 | 0.00 | 0.00 | 86 | 1009.0 |
| 20260504020514 | 40 | 170 | 0.0 | 0.0 | 0.00 | 0.00 | 0.00 | 86 | 1009.0 |
| 20260504020011 | 40 | 170 | 0.0 | 0.0 | 0.00 | 0.00 | 0.00 | 85 | 1009.0 |
| 20260504015507 | 41 | 170 | 0.0 | 0.0 | 0.00 | 0.00 | 0.00 | 85 | 1008.9 |
| 20260504015003 | 41 | 170 | 0.0 | 0.0 | 0.00 | 0.00 | 0.00 | 85 | 1008.8 |
| 20260504014459 | 42 | 170 | 0.0 | 0.0 | 0.00 | 0.00 | 0.00 | 85 | 1008.9 |
| 20260504013956 | 42 | 170 | 0.0 | 0.0 | 0.00 | 0.00 | 0.00 | 84 | 1008.8 |
| 20260504013455 | 42 | 170 | 0.0 | 0.0 | 0.00 | 0.00 | 0.00 | 82 | 1008.7 |
| 20260504012950 | 43 | 170 | 0.0 | 0.0 | 0.00 | 0.00 | 0.00 | 80 | 1008.9 |
| 20260504012449 | 44 | 170 | 0.0 | 0.0 | 0.00 | 0.00 | 0.00 | 80 | 1008.8 |
| 20260504011946 | 45 | 170 | 0.0 | 0.0 | 0.00 | 0.00 | 0.00 | 80 | 1008.7 |
| 20260504011442 | 45 | 170 | 0.0 | 0.0 | 0.00 | 0.00 | 0.00 | 79 | 1009.0 |
| 20260504010938 | 46 | 170 | 0.0 | 0.0 | 0.00 | 0.00 | 0.00 | 78 | 1008.6 |
| 20260504010434 | 46 | 170 | 0.0 | 1.0 | 0.00 | 0.00 | 0.00 | 77 | 1008.8 |
| 20260504005931 | 46 | 170 | 0.0 | 0.0 | 0.00 | 0.00 | 0.00 | 74 | 1008.6 |
| 20260504005427 | 46 | 170 | 1.0 | 1.0 | 0.00 | 0.00 | 0.00 | 74 | 1008.7 |
| 20260504004925 | 46 | 168 | 0.0 | 0.0 | 0.00 | 0.00 | 0.00 | 74 | 1008.6 |
| 20260504004423 | 46 | 168 | 0.0 | 1.0 | 0.00 | 0.00 | 0.00 | 73 | 1008.6 |
| 20260504003919 | 46 | 235 | 0.0 | 0.0 | 0.00 | 0.00 | 0.00 | 78 | 1008.3 |
| 20260504003416 | 47 | 237 | 0.0 | 0.0 | 0.00 | 0.00 | 0.00 | 77 | 1008.3 |
| 20260504002912 | 46 | 237 | 0.0 | 0.0 | 0.00 | 0.00 | 0.00 | 74 | 1008.2 |
| 20260504002409 | 46 | 237 | 0.0 | 0.0 | 0.00 | 0.00 | 0.00 | 72 | 1008.3 |
| 20260504001907 | 47 | 237 | 0.0 | 0.0 | 0.00 | 0.00 | 0.00 | 74 | 1007.9 |
| 20260504001405 | 48 | 237 | 0.0 | 0.0 | 0.00 | 0.00 | 0.00 | 73 | 1007.8 |
| 20260504000901 | 48 | 237 | 0.0 | 0.0 | 0.00 | 0.00 | 0.00 | 70 | 1007.8 |
| 20260504000358 | 48 | 238 | 0.0 | 0.0 | 0.00 | 0.00 | 0.00 | 71 | 1007.9 |
| 20260503235855 | 48 | 238 | 0.0 | 0.0 | 0.00 | 0.00 | 0.00 | 65 | 1007.7 |
| 20260503235353 | 48 | 238 | 0.0 | 0.0 | 0.00 | 0.00 | 0.00 | 65 | 1007.8 |
| 20260503234850 | 49 | 238 | 0.0 | 0.0 | 0.00 | 0.00 | 0.00 | 64 | 1007.8 |
| 20260503234348 | 50 | 238 | 0.0 | 0.0 | 0.00 | 0.00 | 0.00 | 64 | 1007.8 |
| 20260503233845 | 49 | 238 | 1.0 | 1.0 | 0.00 | 0.00 | 0.00 | 62 | 1007.8 |
| 20260503233342 | 50 | 238 | 0.0 | 0.0 | 0.00 | 0.00 | 0.00 | 61 | 1007.7 |
| 20260503232838 | 50 | 238 | 0.0 | 0.0 | 0.00 | 0.00 | 0.00 | 57 | 1007.7 |
| 20260503232335 | 51 | 237 | 0.0 | 0.0 | 0.00 | 0.00 | 0.00 | 54 | 1007.7 |
| 20260503231833 | 51 | 237 | 0.0 | 0.0 | 0.00 | 0.00 | 0.00 | 55 | 1007.6 |